DW5138 Weather Reports


time (UTC)temp
F
wind
direction
speed
knots
gust
knots
rain 1hr
in
rain 24hr
in
rain mn
in
humidity
%
barometer
mb
20220124100845 33 106 0.0 0.0 0.00 1.12 0.00 45 3046.1
20220124100345 33 106 0.0 0.0 0.00 1.12 0.00 45 3046.6
20220124095845 33 106 0.0 0.0 0.00 1.12 0.00 45 3047.3
20220124095345 33 106 0.0 0.0 0.00 1.12 0.00 45 3047.8
20220124094845 33 106 0.0 0.0 0.00 1.12 0.00 45 3048.2
20220124094345 33 106 0.0 0.0 0.00 1.12 0.00 45 3048.0
20220124093845 33 106 0.0 0.0 0.00 1.12 0.00 45 3048.5
20220124093344 33 106 0.0 0.0 0.00 1.12 0.00 45 3048.8
20220124092845 33 106 0.0 0.0 0.00 1.12 0.00 45 3049.3
20220124092344 33 106 0.0 0.0 0.00 1.12 0.00 45 3049.4
20220124091844 33 106 0.0 0.0 0.00 1.12 0.00 45 3049.4
20220124091346 34 109 0.0 0.0 0.00 1.12 0.00 45 3051.3
20220124090844 34 109 0.0 0.0 0.00 1.12 0.00 46 3051.0
20220124090345 34 109 0.0 0.9 0.00 1.12 0.00 47 3051.1
20220124085845 34 109 0.0 0.9 0.00 1.12 0.00 48 3051.4
20220124085345 33 109 0.0 0.9 0.00 1.12 0.00 48 3049.5
20220124084844 33 109 0.0 0.0 0.00 1.12 0.00 49 3049.3
20220124084346 33 109 0.0 0.0 0.00 1.12 0.00 48 3049.1
20220124083845 33 109 0.0 0.0 0.00 1.12 0.00 48 3048.9
20220124083344 33 109 0.0 0.0 0.00 1.12 0.00 49 3048.8
20220124082845 33 109 0.0 0.0 0.00 1.12 0.00 49 3048.9
20220124082344 32 109 0.0 0.0 0.00 1.12 0.00 50 3048.9
20220124081844 32 109 0.0 0.0 0.00 1.12 0.00 50 3049.0
20220124081344 33 109 0.0 0.0 0.00 1.12 0.00 50 3048.9
20220124080845 33 116 0.0 0.0 0.00 1.12 0.00 49 3048.9
20220124080344 33 116 0.0 0.0 0.00 1.12 0.00 48 3049.0
20220124075844 34 116 0.0 0.0 0.00 1.12 0.00 48 3050.5
20220124075344 33 116 0.0 0.9 0.00 1.12 0.00 49 3049.3
20220124074845 33 116 0.0 0.9 0.00 1.12 0.00 51 3049.4
20220124074344 32 116 0.0 0.0 0.00 1.12 0.00 51 3049.7
20220124073845 33 116 0.0 0.0 0.00 1.12 0.00 51 3049.7
20220124073344 33 116 0.0 0.0 0.00 1.12 0.00 50 3049.9
20220124072844 33 116 0.0 0.0 0.00 1.12 0.00 50 3050.0
20220124072343 32 116 0.0 0.0 0.00 1.12 0.00 52 3050.1
20220124071845 32 116 0.0 0.0 0.00 1.12 0.00 53 3050.1
20220124071344 31 116 0.0 0.0 0.00 1.12 0.00 54 3048.6
20220124070844 32 116 0.0 0.0 0.00 1.12 0.00 54 3050.3
20220124070344 32 116 0.0 0.0 0.00 1.12 1.12 53 3050.6
20220124065845 32 116 0.0 0.0 0.00 1.12 1.12 53 3050.9
20220124065344 32 116 0.0 0.0 0.00 1.12 1.12 53 3050.8
20220124064843 32 116 0.0 0.0 0.00 1.12 1.12 54 3050.8
20220124064344 32 116 0.0 0.0 0.00 1.12 1.12 54 3050.9
20220124063843 32 116 0.0 0.9 0.00 1.12 1.12 53 3051.3
20220124063345 32 116 0.0 0.9 0.00 1.12 1.12 53 3051.2
20220124062844 32 104 0.0 0.0 0.00 1.12 1.12 53 3051.6
20220124062343 32 99 0.0 1.7 0.00 1.12 1.12 53 3051.7
20220124061843 32 99 0.0 1.7 0.00 1.12 1.12 55 3052.1
20220124061343 31 92 0.0 0.0 0.00 1.12 1.12 57 3050.2
20220124060843 31 142 0.0 0.0 0.00 1.12 1.12 56 3050.3
20220124060343 31 142 0.0 0.0 0.00 1.12 1.12 55 3051.1
20220124055843 32 118 0.0 0.0 0.00 1.12 1.12 54 3052.9
20220124055343 32 118 0.0 0.0 0.00 1.12 1.12 55 3052.7
20220124054843 31 118 0.0 0.0 0.00 1.12 1.12 55 3051.5
20220124054343 31 118 0.0 0.0 0.00 1.12 1.12 56 3051.6
20220124053843 31 118 0.0 0.0 0.00 1.12 1.12 56 3051.9
20220124053343 31 118 0.0 0.9 0.00 1.12 1.12 56 3052.0
20220124052843 31 118 0.0 0.9 0.00 1.12 1.12 56 3052.1
20220124052343 31 155 0.0 0.9 0.00 1.12 1.12 56 3052.2
20220124051844 31 60 0.0 0.9 0.00 1.12 1.12 56 3052.6
20220124051342 32 60 0.0 0.0 0.00 1.12 1.12 55 3054.4
20220124050842 31 60 0.0 0.0 0.00 1.12 1.12 56 3053.0
20220124050342 31 60 0.0 0.0 0.00 1.12 1.12 56 3052.9
20220124045844 30 60 0.0 0.0 0.00 1.12 1.12 59 3053.0
20220124045343 30 60 0.0 0.0 0.00 1.12 1.12 60 3053.6
20220124044842 29 60 0.0 0.0 0.00 1.12 1.12 61 3052.2
20220124044342 29 60 0.0 0.0 0.00 1.12 1.12 60 3052.6
20220124043843 30 60 0.0 0.0 0.00 1.12 1.12 60 3054.2
20220124043342 30 60 0.0 0.0 0.00 1.12 1.12 60 3054.1
20220124042842 30 60 0.0 0.0 0.00 1.12 1.12 60 3054.4
20220124042342 30 60 0.0 0.0 0.00 1.12 1.12 60 3054.9
20220124041842 30 60 0.0 0.0 0.00 1.12 1.12 61 3055.0
20220124041342 29 60 0.0 0.0 0.00 1.12 1.12 62 3053.6
20220124040842 29 60 0.0 0.0 0.00 1.12 1.12 64 3054.0
20220124040342 28 60 0.0 0.0 0.00 1.12 1.12 64 3054.1
20220124035842 28 60 0.0 0.0 0.00 1.12 1.12 63 3054.1
20220124035343 29 60 0.0 0.0 0.00 1.12 1.12 62 3054.1
20220124034844 29 60 0.0 0.0 0.00 1.12 1.12 61 3054.5
20220124034343 30 60 0.0 0.0 0.00 1.12 1.12 59 3056.2
20220124033842 31 60 0.0 0.0 0.00 1.12 1.12 58 3056.2
20220124033342 31 60 0.0 0.9 0.00 1.12 1.12 57 3056.0
20220124032842 32 60 0.0 0.9 0.00 1.12 1.12 56 3057.6
20220124032342 33 60 0.0 0.0 0.00 1.12 1.12 56 3057.5
20220124031842 33 60 0.0 0.0 0.00 1.12 1.12 56 3057.5
20220124031343 32 60 0.0 0.0 0.00 1.12 1.12 56 3057.3
20220124030843 33 60 0.0 0.9 0.00 1.12 1.12 56 3057.3
20220124030342 33 60 0.0 0.9 0.00 1.12 1.12 56 3057.5
20220124025842 32 60 0.0 0.0 0.00 1.12 1.12 56 3057.4
20220124025342 32 60 0.0 0.0 0.00 1.12 1.12 56 3057.3
20220124024842 32 60 0.0 0.0 0.00 1.12 1.12 56 3057.5
20220124024343 32 60 0.0 0.0 0.00 1.12 1.12 56 3057.4
20220124023842 32 60 0.0 0.0 0.00 1.12 1.12 57 3057.6
20220124023342 33 60 0.0 0.0 0.00 1.12 1.12 56 3057.9
20220124022842 33 60 0.0 0.9 0.00 1.12 1.12 55 3058.2
20220124022341 33 60 0.0 0.9 0.00 1.12 1.12 55 3058.3
20220124021842 33 60 0.0 0.0 0.00 1.12 1.12 56 3058.5
20220124021342 33 60 0.0 0.0 0.00 1.12 1.12 56 3058.5
20220124020841 32 60 0.0 0.0 0.00 1.12 1.12 56 3058.3
20220124020342 33 60 0.0 0.0 0.00 1.12 1.12 55 3058.6
20220124015841 33 60 0.0 0.0 0.00 1.12 1.12 55 3058.3
20220124015342 33 60 0.0 0.0 0.00 1.12 1.12 55 3058.6
20220124014841 33 60 0.0 0.0 0.00 1.12 1.12 55 3058.3
20220124014342 33 60 0.0 0.0 0.00 1.12 1.12 54 3058.4
20220124013842 34 60 0.0 0.0 0.00 1.12 1.12 53 3060.1
20220124013341 34 60 0.0 0.0 0.00 1.12 1.12 52 3059.7
20220124012841 35 60 0.0 0.9 0.00 1.12 1.12 52 3059.8
20220124012341 35 60 0.0 0.9 0.00 1.12 1.12 51 3059.5
20220124011842 35 60 0.0 0.9 0.00 1.12 1.12 51 3059.4
20220124011341 36 58 0.0 0.0 0.00 1.12 1.12 49 3060.6
20220124010841 36 58 0.0 0.9 0.00 1.12 1.12 48 3060.7
20220124010341 36 58 0.0 0.9 0.00 1.12 1.12 48 3060.7
20220124005841 36 58 0.0 0.9 0.00 1.12 1.12 48 3060.8
20220124005341 36 58 0.0 0.9 0.00 1.12 1.12 48 3060.6
20220124004841 36 58 0.0 0.0 0.00 1.12 1.12 49 3060.5
20220124004341 37 58 0.0 0.9 0.00 1.12 1.12 48 3060.6
20220124003840 37 58 0.0 0.9 0.00 1.12 1.12 48 3060.4
20220124003341 37 58 0.0 0.9 0.00 1.12 1.12 47 3060.1
20220124002841 37 58 0.0 0.9 0.00 1.12 1.12 47 3059.9
20220124002341 38 58 0.0 0.9 0.00 1.12 1.12 47 3061.5
20220124001841 38 58 0.0 0.9 0.00 1.12 1.12 46 3061.3
20220124001340 38 58 0.0 0.9 0.00 1.12 1.12 46 3061.0
20220124000840 39 54 0.0 0.9 0.00 1.12 1.12 45 3060.8
20220124000341 39 54 0.0 0.9 0.00 1.12 1.12 44 3061.2
20220123235840 40 54 0.0 0.9 1.12 1.12 1.12 43 3062.9
20220123235341 40 54 0.0 0.9 1.12 1.12 1.12 42 3062.8
20220123234840 41 54 0.0 2.6 1.12 1.12 1.12 41 3063.1
20220123234340 42 54 0.9 2.6 1.12 1.12 1.12 41 3064.5
20220123233840 42 76 0.0 0.9 1.12 1.12 1.12 40 3064.5
20220123233341 43 76 0.0 1.7 1.12 1.12 1.12 38 3064.4
20220123232840 44 295 0.0 1.7 1.12 1.12 1.12 37 3066.0
20220123232340 45 70 0.0 1.7 1.12 1.12 1.12 36 3066.0
20220123231840 45 70 0.0 3.5 1.12 1.12 1.12 37 3065.9
20220123231340 46 28 0.0 3.5 1.12 1.12 1.12 36 3067.3
20220123230841 46 286 2.6 2.6 1.12 1.12 1.12 36 3067.4
20220123230340 46 273 0.0 2.6 1.12 1.12 1.12 35 3067.6